Tracking 32577 objects as of 14-Dec-2025
HD Live streaming from Space Station
objects crossing your sky now

STARLINK-34761

Track STARLINK-34761 now!
10-day predictions
STARLINK-34761 is classified as:


NORAD ID: 64954
Int'l Code: 2025-158Y
Perigee: 555.4 km
Apogee: 557.8 km
Inclination: 97.6 °
Period: 95.6 minutes
Semi major axis: 6927 km
RCS: Unknown
Launch date: July 26, 2025
Source: United States (US)
Launch site: AIR FORCE WESTERN TEST RANGE (AFWTR)
Your satellite tracking list
Your tracking list is empty




NASA's NSSDC Master Catalog

Two Line Element Set (TLE):
1 64954U 25158Y   25347.90375979  .00007743  00000-0  54009-3 0  9991
2 64954  97.6032 209.4699 0001767  88.3140 271.8289 15.05661127 22444
Source of the keplerian elements: AFSPC